Torna al catalogo

COSMOS 886 DEB

AttivoLEO
NORAD 9966·DEBRIS·🇷🇺 Russia

Lanciato Dec 27, 1976 da Baikonur Cosmodrome

Loading…

Prossimi Passaggi (prossime 24 ore)

TLE

AggiornatoSource: Space-Track

Epoca: Sep 14, 2026, 04:22 UTC

1 09966U 76126BG  26257.18211791  .00001061  00000-0  37393-3 0  9990
2 09966  65.7753  50.5430 0621214 310.9877  43.8995 13.64863121383426

Traccia COSMOS 886 DEB in tempo reale con AllMySat

Download on the App Store